Nissan Maru — JG5485 — position and weather

sailwx.info

Track history (hours):
 
Tides and Currents Weather Stations Pressure Air Temp Water Temp Dewpoint Dewpoint Depression Visibility Wind Speed Wind Dir Waves Ship Positions

Nissan Maru

Last reported at 2014-Oct-29 08:24 UTC. Time now 2014-Oct-30 17:33 UTC.
Position N 35°31' E 139°56'.

Length 108 m; draft 7.2 m.

Type: Cargo ship. MMSI: 431400593.

Date/timePositionNaut miles runAvg speedWind from/ knotsBaromVisibWave heightAir tempDewpointWater temp
2014-Oct-29 08:24N 35°31' E 139°56'1011.2
2014-Oct-29 07:33N 35°29' E 139°45'1 0.6
2014-Oct-29 06:33N 35°29' E 139°44'0 0.0
2014-Oct-29 05:33N 35°29' E 139°44'0 0.0
2014-Oct-29 04:30N 35°29' E 139°44'0 0.0
2014-Oct-29 03:30N 35°29' E 139°44'0 0.0
2014-Oct-29 02:33N 35°29' E 139°44'0 0.0
2014-Oct-29 01:33N 35°29' E 139°44'0 0.0
2014-Oct-29 00:24N 35°29' E 139°44'0 0.0
2014-Oct-28 23:33N 35°29' E 139°44'0 0.0
2014-Oct-28 22:33N 35°29' E 139°44'0 0.0
2014-Oct-28 21:33N 35°29' E 139°44'0 0.0
2014-Oct-28 20:33N 35°29' E 139°44'0 0.0
2014-Oct-28 19:33N 35°29' E 139°44'0 0.0
2014-Oct-28 18:33N 35°29' E 139°44'0 0.0
2014-Oct-28 17:33N 35°29' E 139°44'0 0.0
2014-Oct-28 16:33N 35°29' E 139°44'0 0.0
2014-Oct-28 15:33N 35°29' E 139°44'0 0.0
2014-Oct-28 14:33N 35°29' E 139°44'0 0.0
2014-Oct-28 13:30N 35°29' E 139°44'0 0.0
2014-Oct-28 12:33N 35°29' E 139°44'0 0.0
2014-Oct-28 11:33N 35°29' E 139°44'0 0.0
2014-Oct-28 10:33N 35°29' E 139°44'0 0.0
2014-Oct-28 09:33N 35°29' E 139°44'0 0.0
2014-Oct-28 08:33N 35°29' E 139°44'0 0.0
2014-Oct-28 07:33N 35°29' E 139°44'0 0.0
2014-Oct-28 06:30N 35°29' E 139°44'0 0.0
2014-Oct-28 05:33N 35°29' E 139°44'0 0.0
2014-Oct-28 04:30N 35°29' E 139°44'0 0.0
2014-Oct-28 03:27N 35°29' E 139°44'0 0.0
2014-Oct-28 02:33N 35°29' E 139°44'0 0.0
2014-Oct-28 01:33N 35°29' E 139°44'0 0.0
2014-Oct-28 00:33N 35°29' E 139°44'2 1.7
2014-Oct-27 23:33N 35°28' E 139°45'1010.1
2014-Oct-27 22:33N 35°18' E 139°45'1110.4
2014-Oct-27 21:30N 35°07' E 139°45'  
2014-Oct-25 03:15N 35°06' E 139°40'913.3
2014-Oct-25 02:33N 35°13' E 139°46'1110.8
2014-Oct-25 01:33N 35°24' E 139°45'0 0.5
2014-Oct-25 00:33N 35°24' E 139°45'0 0.0
2014-Oct-24 23:33N 35°24' E 139°45'4 4.2
2014-Oct-24 22:33N 35°29' E 139°45'0 0.5
2014-Oct-24 21:33N 35°29' E 139°44'0 0.0
2014-Oct-24 20:27N 35°29' E 139°44'0 0.0
2014-Oct-24 19:33N 35°29' E 139°44'0 0.0
2014-Oct-24 18:33N 35°29' E 139°44'0 0.0
2014-Oct-24 17:33N 35°29' E 139°44'0 0.0
2014-Oct-24 16:33N 35°29' E 139°44'0 0.0
2014-Oct-24 15:30N 35°29' E 139°44'0 0.0
2014-Oct-24 14:33N 35°29' E 139°44'0 0.0
2014-Oct-24 13:33N 35°29' E 139°44'0 0.0
2014-Oct-24 12:33N 35°29' E 139°44'8 8.3
2014-Oct-24 11:34N 35°21' E 139°45'  
2014-Oct-21 13:25N 35°04' E 139°37'1011.5
2014-Oct-21 12:33N 35°11' E 139°45'1111.3
2014-Oct-21 11:34N 35°22' E 139°42'7 6.9
2014-Oct-21 10:34N 35°29' E 139°44'0 0.0
2014-Oct-21 09:32N 35°29' E 139°44'0 0.0
2014-Oct-21 08:32N 35°29' E 139°44'0 0.0
2014-Oct-21 07:32N 35°29' E 139°44'0 0.0
2014-Oct-21 06:32N 35°29' E 139°44'0 0.0
2014-Oct-21 05:32N 35°29' E 139°44'0 0.0
2014-Oct-21 04:32N 35°29' E 139°44'0 0.0
2014-Oct-21 03:32N 35°29' E 139°44'0 0.0
2014-Oct-21 02:29N 35°29' E 139°44'0 0.0
2014-Oct-21 01:32N 35°29' E 139°44'0 0.0
2014-Oct-21 00:32N 35°29' E 139°44'0 0.0
2014-Oct-20 23:32N 35°29' E 139°44'0 0.0
2014-Oct-20 22:32N 35°29' E 139°44'0 0.0
2014-Oct-20 21:32N 35°29' E 139°44'5 4.7
2014-Oct-20 20:33N 35°25' E 139°46'1010.1
2014-Oct-20 19:33N 35°15' E 139°47'  
Track history (hours):
 
Tides and Currents Weather Stations Pressure Air Temp Water Temp Dewpoint Dewpoint Depression Visibility Wind Speed Wind Dir Waves Ship Positions

Nissan Maru

Last reported at 2014-Oct-29 08:24 UTC. Time now 2014-Oct-30 17:33 UTC.
Position N 35°31' E 139°56'.

Length 108 m; draft 7.2 m.

Type: Cargo ship. MMSI: 431400593.

Date/timePositionNaut miles runAvg speedWind from/ knotsBaromVisibWave heightAir tempDewpointWater temp
2014-Oct-29 08:24N 35°31' E 139°56'1011.2
2014-Oct-29 07:33N 35°29' E 139°45'1 0.6
2014-Oct-29 06:33N 35°29' E 139°44'0 0.0
2014-Oct-29 05:33N 35°29' E 139°44'0 0.0
2014-Oct-29 04:30N 35°29' E 139°44'0 0.0
2014-Oct-29 03:30N 35°29' E 139°44'0 0.0
2014-Oct-29 02:33N 35°29' E 139°44'0 0.0
2014-Oct-29 01:33N 35°29' E 139°44'0 0.0
2014-Oct-29 00:24N 35°29' E 139°44'0 0.0
2014-Oct-28 23:33N 35°29' E 139°44'0 0.0
2014-Oct-28 22:33N 35°29' E 139°44'0 0.0
2014-Oct-28 21:33N 35°29' E 139°44'0 0.0
2014-Oct-28 20:33N 35°29' E 139°44'0 0.0
2014-Oct-28 19:33N 35°29' E 139°44'0 0.0
2014-Oct-28 18:33N 35°29' E 139°44'0 0.0
2014-Oct-28 17:33N 35°29' E 139°44'0 0.0
2014-Oct-28 16:33N 35°29' E 139°44'0 0.0
2014-Oct-28 15:33N 35°29' E 139°44'0 0.0
2014-Oct-28 14:33N 35°29' E 139°44'0 0.0
2014-Oct-28 13:30N 35°29' E 139°44'0 0.0
2014-Oct-28 12:33N 35°29' E 139°44'0 0.0
2014-Oct-28 11:33N 35°29' E 139°44'0 0.0
2014-Oct-28 10:33N 35°29' E 139°44'0 0.0
2014-Oct-28 09:33N 35°29' E 139°44'0 0.0
2014-Oct-28 08:33N 35°29' E 139°44'0 0.0
2014-Oct-28 07:33N 35°29' E 139°44'0 0.0
2014-Oct-28 06:30N 35°29' E 139°44'0 0.0
2014-Oct-28 05:33N 35°29' E 139°44'0 0.0
2014-Oct-28 04:30N 35°29' E 139°44'0 0.0
2014-Oct-28 03:27N 35°29' E 139°44'0 0.0
2014-Oct-28 02:33N 35°29' E 139°44'0 0.0
2014-Oct-28 01:33N 35°29' E 139°44'0 0.0
2014-Oct-28 00:33N 35°29' E 139°44'2 1.7
2014-Oct-27 23:33N 35°28' E 139°45'1010.1
2014-Oct-27 22:33N 35°18' E 139°45'1110.4
2014-Oct-27 21:30N 35°07' E 139°45'  
2014-Oct-25 03:15N 35°06' E 139°40'913.3
2014-Oct-25 02:33N 35°13' E 139°46'1110.8
2014-Oct-25 01:33N 35°24' E 139°45'0 0.5
2014-Oct-25 00:33N 35°24' E 139°45'0 0.0
2014-Oct-24 23:33N 35°24' E 139°45'4 4.2
2014-Oct-24 22:33N 35°29' E 139°45'0 0.5
2014-Oct-24 21:33N 35°29' E 139°44'0 0.0
2014-Oct-24 20:27N 35°29' E 139°44'0 0.0
2014-Oct-24 19:33N 35°29' E 139°44'0 0.0
2014-Oct-24 18:33N 35°29' E 139°44'0 0.0
2014-Oct-24 17:33N 35°29' E 139°44'0 0.0
2014-Oct-24 16:33N 35°29' E 139°44'0 0.0
2014-Oct-24 15:30N 35°29' E 139°44'0 0.0
2014-Oct-24 14:33N 35°29' E 139°44'0 0.0
2014-Oct-24 13:33N 35°29' E 139°44'0 0.0
2014-Oct-24 12:33N 35°29' E 139°44'8 8.3
2014-Oct-24 11:34N 35°21' E 139°45'  
2014-Oct-21 13:25N 35°04' E 139°37'1011.5
2014-Oct-21 12:33N 35°11' E 139°45'1111.3
2014-Oct-21 11:34N 35°22' E 139°42'7 6.9
2014-Oct-21 10:34N 35°29' E 139°44'0 0.0
2014-Oct-21 09:32N 35°29' E 139°44'0 0.0
2014-Oct-21 08:32N 35°29' E 139°44'0 0.0
2014-Oct-21 07:32N 35°29' E 139°44'0 0.0
2014-Oct-21 06:32N 35°29' E 139°44'0 0.0
2014-Oct-21 05:32N 35°29' E 139°44'0 0.0
2014-Oct-21 04:32N 35°29' E 139°44'0 0.0
2014-Oct-21 03:32N 35°29' E 139°44'0 0.0
2014-Oct-21 02:29N 35°29' E 139°44'0 0.0
2014-Oct-21 01:32N 35°29' E 139°44'0 0.0
2014-Oct-21 00:32N 35°29' E 139°44'0 0.0
2014-Oct-20 23:32N 35°29' E 139°44'0 0.0
2014-Oct-20 22:32N 35°29' E 139°44'0 0.0
2014-Oct-20 21:32N 35°29' E 139°44'5 4.7
2014-Oct-20 20:33N 35°25' E 139°46'1010.1
2014-Oct-20 19:33N 35°15' E 139°47'  

Dump ship's entire track history